Ames, IA

10:31 AM CST on February 06, 2016 (GMT -0600)
Ames Municipal

Weather History for KAMW - October, 2014

Change the Weather History Date:

Tuesday, October 14, 2014

  Actual Average Record
Temperature  
Mean Temperature 57 °F 52 °F  
Max Temperature 63 °F 64 °F - ()
Min Temperature 50 °F 40 °F - ()
Degree Days  
Heating Degree Days 8 14  
Month to date heating degree days 181 161  
Since 1 July heating degree days 333 305  
Cooling Degree Days 0 0  
Month to date cooling degree days 0 10  
Year to date cooling degree days 650 752  
Growing Degree Days 6 (Base 50)    
Moisture  
Dew Point 42 °F    
Average Humidity 70    
Maximum Humidity 93    
Minimum Humidity 46    
Precipitation  
Precipitation 0.32 in 0.08 in - ()
Month to date precipitation 3.33 1.11  
Sea Level Pressure  
Sea Level Pressure 29.73 in    
Wind  
Wind Speed 22 mph (North)    
Max Wind Speed 32 mph    
Max Gust Speed 45 mph    
Visibility 9 miles    
Events Rain    
T = Trace of Precipitation, MM = Missing Value Source: NWS Daily Summary

Daily Weather History Graph

Daily Weather History Graph

Search for Another Location

Airport or City:

Trip Planner

Search our weather history database for the weather conditions in past years. The results will help you decide how hot, cold, wet, or windy it might be!

Date:

Astronomy

Oct. 14, 2014 Rise Set
Actual Time 7:25 AM CDT 6:34 PM CDT
Civil Twilight 6:57 AM CDT 7:02 PM CDT
Nautical Twilight 6:25 AM CDT 7:34 PM CDT
Astronomical Twilight 5:52 AM CDT 8:07 PM CDT
Moon 11:38 PM CDT (10/14) 1:29 PM CDT (10/14)
Length of Visible Light 12h 04m
Length of Day
11h 08m
Waning Gibbous, 61% of the Moon is Illuminated
Oct 14
Waning Gibbous
Oct 15
Last Quarter
Oct 23
New
Oct 30
First Quarter
Nov 6
Full

Hourly Weather History & Observations

Time (CDT) Temp. Dew Point Humidity Pressure Visibility Wind Dir Wind Speed Gust Speed Precip Events Conditions
12:53 AM 52.0 °F - N/A% 29.59 in 4.0 mi North 23.0 mph 31.1 mph 0.24 in Rain Rain
1:02 AM 52.0 °F - N/A% 29.59 in 4.0 mi North 24.2 mph 31.1 mph 0.03 in Rain Rain
1:14 AM 52.0 °F - N/A% 29.59 in 4.0 mi North 25.3 mph 34.5 mph 0.08 in Rain Rain
1:25 AM 52.0 °F - N/A% 29.59 in 5.0 mi NNW 24.2 mph 32.2 mph 0.12 in Rain Rain
1:53 AM 52.0 °F - N/A% 29.59 in 7.0 mi NNW 21.9 mph 33.4 mph 0.17 in Rain Light Rain
2:53 AM 51.1 °F - N/A% 29.60 in 10.0 mi NNW 23.0 mph 34.5 mph 0.05 in Rain Light Rain
3:53 AM 51.1 °F - N/A% 29.61 in 8.0 mi NNW 23.0 mph 33.4 mph 0.06 in Rain Light Rain
4:53 AM 51.1 °F - N/A% 29.63 in 9.0 mi North 24.2 mph 38.0 mph 0.03 in   Overcast
5:48 AM 51.8 °F - N/A% 29.65 in 9.0 mi North 25.3 mph 35.7 mph 0.00 in   Overcast
5:53 AM 50.0 °F - N/A% 29.65 in 9.0 mi North 25.3 mph 35.7 mph 0.00 in   Overcast
6:53 AM 50.0 °F - N/A% 29.67 in 10.0 mi North 24.2 mph 29.9 mph 0.01 in Rain Light Rain
7:53 AM 50.0 °F 46.9 °F 89% 29.69 in 10.0 mi North 27.6 mph 38.0 mph 0.02 in   Overcast
8:53 AM 50.0 °F 46.0 °F 86% 29.70 in 10.0 mi North 24.2 mph 39.1 mph N/A   Overcast
9:53 AM 50.0 °F 48.0 °F 93% 29.72 in 10.0 mi North 24.2 mph 34.5 mph N/A   Overcast
10:53 AM 51.1 °F 46.0 °F 83% 29.73 in 10.0 mi North 29.9 mph 41.4 mph N/A   Overcast
11:53 AM 52.0 °F 45.0 °F 77% 29.75 in 10.0 mi North 26.5 mph 38.0 mph N/A   Overcast
12:40 PM 54.0 °F 45.0 °F 72% 29.76 in 10.0 mi North 24.2 mph 34.5 mph N/A   Overcast
12:53 PM 54.0 °F 45.0 °F 72% 29.75 in 10.0 mi North 25.3 mph 36.8 mph N/A   Overcast
1:53 PM 55.9 °F 44.1 °F 64% 29.77 in 10.0 mi North 20.7 mph 36.8 mph N/A   Overcast
2:53 PM 57.9 °F 43.0 °F 58% 29.77 in 10.0 mi North 23.0 mph 34.5 mph N/A   Overcast
3:53 PM 62.1 °F 42.1 °F 48% 29.77 in 10.0 mi North 31.1 mph 44.9 mph N/A   Mostly Cloudy
4:53 PM 60.1 °F 41.0 °F 49% 29.80 in 10.0 mi North 19.6 mph 28.8 mph N/A   Overcast
5:53 PM 60.1 °F 39.0 °F 46% 29.82 in 10.0 mi North 21.9 mph 27.6 mph N/A   Overcast
6:53 PM 59.0 °F 39.0 °F 48% 29.85 in 10.0 mi North 15.0 mph 25.3 mph N/A   Overcast
7:53 PM 57.9 °F 39.9 °F 51% 29.87 in 10.0 mi North 18.4 mph 23.0 mph N/A   Overcast
8:53 PM 55.9 °F 39.9 °F 55% 29.88 in 10.0 mi NNW 15.0 mph - N/A   Overcast
9:53 PM 54.0 °F 39.0 °F 57% 29.90 in 10.0 mi NNW 17.3 mph 24.2 mph N/A   Partly Cloudy
10:53 PM 52.0 °F 37.9 °F 59% 29.90 in 10.0 mi North 16.1 mph - N/A   Clear
11:53 PM 50.0 °F 37.9 °F 63% 29.91 in 10.0 mi NNW 13.8 mph - N/A   Clear